Miami, FL

9:32 AM EDT on October 18, 2019 (GMT -0400)
Miami International

Weather History for KMIA - May, 2019

Change the Weather History Date:

Monday, May 20, 2019

  Actual Average Record
Temperature  
Mean Temperature 82 °F -  
Max Temperature 87 °F - 95 °F (2008)
Min Temperature 76 °F - 60 °F (1937)
Cooling Degree Days 17    
Month to date cooling degree days 339  
Year to date cooling degree days 1428  
Growing Degree Days 32 (Base 50)    
Moisture  
Dew Point 70 °F    
Average Humidity 71    
Maximum Humidity 82    
Minimum Humidity 59    
Precipitation  
Precipitation 0.01 in - 4.74 in (1912)
Month to date precipitation 4.60  
Year to date precipitation 13.20  
Snow  
Snow 0.00 in - - ()
Month to date snowfall 0.0  
Snow Depth 0.00 in    
Sea Level Pressure  
Sea Level Pressure 30.00 in    
Wind  
Wind Speed 6 mph (East)    
Max Wind Speed 16 mph    
Max Gust Speed 23 mph    
Visibility 10 miles    
Events Rain , Thunderstorm    
T = Trace of Precipitation, MM = Missing Value Source: NWS Daily Summary

Daily Weather History Graph

Daily Weather History Graph

Search for Another Location

Airport or City:

Astronomy

May. 20, 2019 Rise Set
Actual Time 6:33 AM EDT 8:02 PM EDT
Civil Twilight 6:08 AM EDT 8:27 PM EDT
Nautical Twilight 5:38 AM EDT 8:57 PM EDT
Astronomical Twilight 5:06 AM EDT 9:29 PM EDT
Moon 9:58 PM EDT (5/20) 8:01 AM EDT (5/20)
Length of Visible Light 14h 19m
Length of Day
13h 29m
Waning Gibbous, 96% of the Moon is Illuminated
May 20
Waning Gibbous
May 26
Last Quarter
Jun 3
New
Jun 10
First Quarter
Jun 17
Full

Hourly Weather History & Observations

Time (EDT) Temp. Heat Index Dew Point Humidity Pressure Visibility Wind Dir Wind Speed Gust Speed Precip Events Conditions
12:53 AM 80.1 °F 83.2 °F 70.0 °F 71% 30.02 in 10.0 mi East 10.4 mph - N/A   Partly Cloudy
1:53 AM 79.0 °F - 70.0 °F 74% 30.00 in 10.0 mi ESE 6.9 mph - N/A   Partly Cloudy
2:53 AM 79.0 °F - 70.0 °F 74% 29.99 in 10.0 mi East 3.5 mph - N/A   Partly Cloudy
3:53 AM 79.0 °F - 70.0 °F 74% 29.98 in 10.0 mi Calm Calm - N/A   Partly Cloudy
4:53 AM 78.1 °F - 71.1 °F 79% 29.98 in 10.0 mi Calm Calm - N/A   Partly Cloudy
5:53 AM 77.0 °F - 71.1 °F 82% 29.98 in 10.0 mi Calm Calm - N/A   Partly Cloudy
6:53 AM 79.0 °F - 71.1 °F 77% 30.00 in 10.0 mi Calm Calm - N/A   Scattered Clouds
7:53 AM 81.0 °F 84.9 °F 71.1 °F 72% 30.01 in 10.0 mi Calm Calm - N/A   Partly Cloudy
8:53 AM 81.0 °F 84.9 °F 71.1 °F 72% 30.02 in 10.0 mi SSW 3.5 mph - N/A   Scattered Clouds
9:41 AM 82.9 °F 88.0 °F 72.0 °F 69% 30.02 in 10.0 mi Calm Calm - N/A   Mostly Cloudy
9:53 AM 84.0 °F 89.0 °F 71.1 °F 65% 30.02 in 10.0 mi Variable 3.5 mph - N/A   Mostly Cloudy
10:53 AM 82.0 °F 85.5 °F 69.1 °F 65% 30.04 in 10.0 mi Calm Calm - N/A   Mostly Cloudy
11:37 AM 84.9 °F 90.1 °F 71.1 °F 63% 30.03 in 10.0 mi Calm Calm - 0.00 in   Mostly Cloudy
11:53 AM 84.9 °F 88.2 °F 68.0 °F 57% 30.04 in 10.0 mi Variable 4.6 mph - 0.00 in   Mostly Cloudy
12:22 PM 77.0 °F - 68.0 °F 74% 30.04 in 7.0 mi ENE 12.7 mph 23.0 mph 0.00 in Rain Rain
12:43 PM 78.1 °F - 70.0 °F 76% 30.03 in 10.0 mi East 11.5 mph - 0.01 in Rain , Thunderstorm Light Rain
12:53 PM 79.0 °F - 70.0 °F 74% 30.03 in 10.0 mi East 8.1 mph - 0.01 in   Mostly Cloudy
1:00 PM 79.0 °F - 70.0 °F 74% 30.02 in 10.0 mi ENE 5.8 mph - N/A Thunderstorm Mostly Cloudy
1:15 PM 81.0 °F 84.4 °F 70.0 °F 69% 30.03 in 10.0 mi East 5.8 mph - N/A   Mostly Cloudy
1:53 PM 81.0 °F 84.4 °F 70.0 °F 69% 30.02 in 10.0 mi North 6.9 mph - N/A   Mostly Cloudy
2:53 PM 84.9 °F 89.4 °F 70.0 °F 61% 29.99 in 10.0 mi ENE 11.5 mph - N/A   Mostly Cloudy
3:53 PM 84.9 °F 90.1 °F 71.1 °F 63% 29.97 in 10.0 mi East 10.4 mph - N/A   Mostly Cloudy
4:53 PM 84.0 °F 89.0 °F 71.1 °F 65% 29.96 in 10.0 mi East 11.5 mph - N/A   Mostly Cloudy
5:53 PM 84.0 °F 88.4 °F 70.0 °F 63% 29.96 in 10.0 mi ENE 10.4 mph - N/A   Mostly Cloudy
6:53 PM 82.9 °F 85.8 °F 68.0 °F 60% 29.96 in 10.0 mi East 11.5 mph - N/A   Mostly Cloudy
7:53 PM 82.0 °F 84.9 °F 68.0 °F 62% 29.96 in 10.0 mi East 11.5 mph - N/A   Mostly Cloudy
8:53 PM 81.0 °F 84.4 °F 70.0 °F 69% 29.96 in 10.0 mi East 9.2 mph - N/A   Scattered Clouds
9:53 PM 81.0 °F 84.4 °F 70.0 °F 69% 29.98 in 10.0 mi East 12.7 mph - N/A   Partly Cloudy
10:53 PM 81.0 °F 84.9 °F 71.1 °F 72% 29.99 in 10.0 mi ESE 6.9 mph - N/A   Scattered Clouds
11:53 PM 80.1 °F 82.9 °F 69.1 °F 69% 29.99 in 10.0 mi East 6.9 mph - N/A   Partly Cloudy